Location: ???????
(60.4260°N, 46.9069°E)
Time: 22:10:02
(UTC+00:00)

Meteor 1-27 Rocket - Pass Details

Date: 30 March 2020
Orbit: 831 x 909 km, 81.3° (Epoch: 22 May)

Event Time Altitude Azimuth Distance (km) Brightness Sun altitude
Exits shadow 01:19:30 - 222° (SW) 2,721 5.8 -8.3°
Reaches altitude 10° 01:20:09 10° 224° (SW) 2,482 5.6 -8.2°
Maximum altitude 01:25:36 48° 298° (WNW) 1,130 4.1 -7.6°
Drops below altitude 10° 01:31:11 10° 12° (NNE) 2,548 6.7 -6.9°
Sets 01:33:46 0° 19° (NNE) 3,502 7.5 -6.6°
